RH
12 13 13 17 11 12 12 11 11 11 9 11 14 20 22 21 21 22 25 24 25 23 24 30 32 28 39 41 47 53 57 68 64 72 75 69 88 90 89 73 71 73 66 66
14 14 14 12 10 10 10 10 10 10 8 10 13 16 19 19 18 20 35 31 22 22 23 27 27 30 28 40 49 59 61 71 67 64 66 68 76 98 98 80 76 69 68 67
14 15 10 12 10 10 10 9 12 11 9 8 11 14 24 18 15 18 19 46 62 27 23 28 27 27 29 42 49 59 65 71 70 71 65 82 83 96 94 97 74 65 76 70
11 11 11 11 11 8 10 10 8 9 10 12 8 16 22 14 18 17 18 48 45 31 23 28 27 26 27 40 43 57 64 70 68 72 70 79 87 87 89 76 72 78 88 84
10 9 10 10 10 8 11 8 7 8 9 10 10 11 20 17 16 18 16 20 64 46 21 24 25 27 27 34 40 50 65 71 72 74 78 70 76 66 67 72 79 84 83 75
6 4 5 7 8 8 7 8 8 8 8 12 9 10 21 31 38 41 16 16 34 24 21 24 24 27 28 33 38 44 67 75 74 74 77 84 81 80 84 94 86 83 75 66
6 8 5 5 8 8 8 8 12 14 12 12 13 17 29 36 39 36 29 18 16 21 19 23 26 27 29 36 39 44 65 73 73 72 72 76 81 83 85 85 73 81 83 95
9 11 7 6 9 9 8 6 9 22 21 24 19 27 32 30 35 35 24 17 16 15 18 20 24 29 32 36 38 41 62 72 70 71 75 75 77 71 77 78 77 77 91 89
9 10 6 6 6 7 8 10 6 8 7 15 25 68 52 30 31 23 21 19 18 16 20 28 24 27 32 36 40 43 62 65 66 62 72 75 75 78 77 79 82 73 75 58
8 12 7 7 6 6 7 6 9 8 20 25 48 42 60 76 85 67 23 21 19 20 22 22 24 29 31 30 34 39 50 58 59 58 64 73 75 78 77 78 77 75 72 72
6 9 14 11 9 9 8 8 9 8 11 22 46 27 59 71 74 88 45 31 31 31 32 32 32 34 34 34 41 35 44 57 62 74 79 77 68 67 76 71 70 72 71 72
7 10 16 16 13 8 6 7 8 11 23 16 32 31 44 68 75 84 55 35 33 32 33 34 36 50 59 56 59 60 61 65 69 71 68 63 62 61 56 66 68 75 67 66
11 16 40 43 20 18 20 17 8 8 10 23 19 39 47 55 59 74 40 41 44 42 40 41 57 62 55 53 58 60 64 72 67 59 51 52 53 51 50 53 57 63 66 69
24 13 26 63 58 41 34 20 14 9 12 13 12 26 75 81 87 82 42 39 41 42 43 40 41 49 51 56 60 58 51 55 58 53 50 60 56 55 56 66 69 66 73 73
10 21 29 26 34 33 34 18 16 13 13 16 15 13 36 48 71 83 38 37 38 39 36 41 43 52 58 59 57 56 56 57 54 58 61 64 66 67 69 74 74 73 74 70
10 17 28 28 25 26 25 14 11 11 12 12 10 11 17 15 34 46 44 41 40 40 40 38 43 45 48 50 52 51 51 55 57 59 60 65 70 72 73 76 76 78 77 75
12 12 23 24 18 20 22 17 12 11 10 9 12 21 24 22 20 34 41 42 43 38 46 47 38 39 42 39 40 41 52 51 56 59 61 66 70 73 76 75 77 79 80 79
14 18 18 19 18 23 12 12 12 12 11 9 13 17 23 26 23 27 38 55 51 44 50 45 38 41 38 32 34 46 45 59 60 64 66 69 72 73 76 78 78 80 79 79
8 13 17 20 19 16 13 12 14 14 15 12 16 22 22 24 23 34 35 36 45 45 41 45 32 34 42 38 43 48 49 54 60 62 67 70 72 75 76 78 80 79 79 78
11 14 16 20 23 26 19 13 11 12 18 16 15 21 24 22 31 45 42 42 35 31 29 28 26 28 32 44 42 48 50 54 59 62 65 68 71 74 75 77 79 78 78 78
17 20 22 21 20 16 14 13 12 21 29 18 17 21 22 32 35 32 29 31 27 28 29 30 32 35 38 41 42 55 54 53 62 65 67 71 73 76 76 77 77 79 80 80
21 22 19 20 26 25 17 16 23 32 23 21 24 26 28 31 30 28 28 28 29 28 30 29 36 40 41 50 57 67 71 69 70 71 72 74 76 70 63 78 81 82 83 82
21 17 21 20 34 32 24 24 20 20 27 26 27 26 27 26 28 29 31 31 31 32 39 36 44 54 57 61 64 68 77 77 76 78 78 78 78 75 75 80 83 83 83 75
17 17 22 23 25 26 22 20 20 22 26 26 25 26 28 32 31 32 33 34 36 39 48 50 55 57 63 66 68 69 72 75 79 83 80 74 73 75 75 66 62 68 81 86
18 24 23 24 30 28 25 24 26 26 25 27 28 29 32 34 35 37 40 44 43 48 51 53 59 61 64 63 69 64 69 76 84 80 75 74 71 77 82 82 79 75 76 82
15 23 22 24 33 36 34 28 25 30 34 34 32 34 35 35 38 38 39 42 50 53 53 60 65 67 69 71 73 74 81 79 79 86 78 78 84 81 79 78 76 76 81 82
Wind_Speed
16 15 17 21 5 5 10 8 6 9 9 5 6 14 18 15 15 16 16 17 16 13 17 19 16 16 18 16 13 11 10 12 9 8 6 5 5 6 5 6 7 5 6 5
14 17 9 13 2 5 10 6 7 10 10 9 10 11 19 17 13 15 22 17 16 17 15 13 16 19 16 14 12 11 8 10 7 6 6 3 2 8 7 8 6 7 5 4
12 16 11 10 6 9 10 14 8 10 11 9 7 6 17 18 13 15 14 17 18 9 17 17 14 15 15 15 13 13 10 10 9 8 5 5 5 5 5 4 4 5 2 7
13 26 9 10 9 12 11 14 4 4 8 9 16 10 10 12 15 13 16 27 29 24 18 17 16 13 13 16 14 14 12 11 10 8 6 5 3 4 5 7 7 4 11 13
11 11 15 10 10 13 2 11 7 7 10 16 18 12 15 15 10 13 15 19 24 30 21 18 17 14 15 14 14 14 13 11 9 10 8 4 7 7 3 4 7 8 10 13
17 10 14 6 14 16 5 3 12 11 11 12 17 17 14 7 2 8 14 11 28 25 19 18 14 14 13 14 14 13 13 11 10 10 9 7 4 5 1 6 7 7 7 8
13 9 10 16 18 10 10 11 10 11 12 14 12 12 4 10 5 9 22 18 14 8 18 18 15 16 12 14 12 13 14 11 10 9 9 9 7 6 5 2 4 7 5 1
13 13 13 11 12 9 14 17 12 11 4 8 14 6 5 15 22 26 23 11 12 13 16 19 17 16 14 15 11 11 14 11 10 9 9 7 8 5 4 5 4 4 4 3
9 13 20 16 13 13 12 13 15 16 18 3 4 10 26 10 12 23 11 13 15 15 6 16 18 16 14 14 12 10 13 11 10 10 7 7 4 4 5 4 3 4 4 7
16 12 20 17 13 13 15 16 12 9 11 7 5 1 10 8 20 30 12 15 12 8 10 12 12 12 10 10 14 11 14 12 10 8 9 7 7 5 5 5 4 3 4 4
16 5 2 12 4 14 12 14 14 17 6 1 3 4 12 16 10 26 27 7 9 11 9 8 7 8 9 4 5 11 8 9 5 6 7 6 3 5 6 4 2 5 4 3
14 12 7 10 16 20 11 14 10 9 5 10 4 10 13 18 20 18 16 11 13 15 14 11 11 13 12 11 10 10 13 10 10 7 4 4 4 2 4 6 5 5 1 3
9 5 5 10 19 22 11 21 11 9 11 9 9 3 14 10 21 12 12 11 11 12 13 16 13 8 9 9 8 8 10 8 8 8 10 6 4 4 2 5 6 5 4 3
5 2 10 6 8 14 14 18 18 7 10 14 12 13 18 17 11 30 10 12 13 12 12 13 13 9 10 8 7 6 7 7 6 8 8 6 5 6 7 8 7 8 6 5
5 12 16 7 16 23 19 2 24 10 11 12 15 18 20 26 27 21 23 17 12 11 12 12 11 8 7 6 6 6 5 4 5 4 4 3 3 4 4 5 6 7 7 7
8 9 20 19 22 29 30 18 15 14 14 16 13 12 16 14 18 23 15 17 15 13 12 12 11 9 8 7 6 5 3 2 2 2 3 4 4 4 4 4 5 6 7 9
8 8 7 11 13 19 24 21 4 7 12 11 9 11 12 12 9 9 16 14 13 12 12 5 9 7 7 5 4 3 5 3 2 2 3 4 4 5 5 6 7 7 8 9
4 2 6 8 10 12 13 7 1 5 8 9 4 8 9 10 9 15 16 11 10 10 7 5 4 4 5 3 5 6 6 5 3 4 4 5 5 6 6 7 7 8 9 10
10 5 4 6 10 14 14 6 4 0 5 7 0 6 3 6 3 14 14 14 11 10 6 3 2 2 3 4 5 4 5 5 6 6 5 5 6 6 6 8 8 9 11 11
4 8 6 9 11 15 16 9 9 8 4 10 4 7 8 2 3 8 9 6 9 6 3 2 4 7 7 6 7 6 7 6 7 7 6 6 6 7 8 9 10 11 12 13
6 4 6 8 10 10 5 10 4 5 6 7 5 6 4 10 9 7 9 10 10 10 10 10 8 7 7 7 8 7 8 9 9 10 8 8 8 9 10 11 10 10 11 12
8 9 8 10 13 6 11 4 4 4 5 7 12 12 10 11 7 6 7 7 8 9 10 11 9 9 11 13 13 12 11 11 10 10 11 10 9 9 11 13 12 13 12 14
5 4 5 6 5 4 7 7 6 10 10 8 8 10 8 7 9 9 8 10 11 12 11 12 13 13 12 14 13 13 13 16 14 11 11 11 10 9 11 11 12 10 10 12
4 6 2 6 8 6 5 5 6 9 12 11 11 9 8 7 8 9 9 10 10 10 11 11 12 12 12 12 13 13 13 14 14 13 12 10 10 10 11 10 11 9 9 9
4 2 2 6 9 7 5 7 9 11 10 11 8 8 8 7 7 8 9 9 9 9 11 10 11 10 11 11 11 13 12 12 11 11 12 12 11 12 12 11 9 10 11 10
6 6 8 3 8 4 9 11 9 9 8 7 5 6 7 6 7 7 7 8 9 9 9 9 10 9 10 9 9 10 9 11 12 10 10 9 10 9 10 10 12 14 16 18
Wind_Direction
217 240 242 37 340 115 272 189 144 112 137 246 246 156 163 183 181 165 165 164 161 172 163 157 170 158 147 167 160 163 185 159 173 175 203 190 173 197 224 230 234 180 228 178
239 242 79 272 165 194 233 234 229 147 160 216 221 187 159 184 203 170 114 251 165 163 150 153 169 166 179 159 157 162 181 158 177 197 211 200 144 98 278 238 212 219 173 221
222 251 225 227 213 233 240 253 112 293 167 214 267 241 161 182 189 171 179 90 329 217 157 161 174 173 171 156 165 166 177 170 183 231 212 184 196 140 183 268 251 186 348 234
245 230 262 212 245 224 226 330 90 240 276 250 197 216 204 180 177 205 189 137 195 225 157 161 169 178 174 154 168 164 173 174 187 208 246 217 188 216 205 196 206 184 178 223
233 243 224 239 239 243 117 225 282 256 253 254 248 222 176 164 206 189 217 170 144 265 158 160 171 177 167 158 163 164 169 181 193 189 232 211 217 225 211 260 200 196 185 198
268 240 245 217 236 239 84 265 231 230 242 260 259 227 147 143 118 329 215 201 167 210 155 156 173 160 164 156 160 164 164 177 189 180 196 245 272 279 176 227 240 204 206 195
228 230 219 220 210 189 240 248 250 223 221 235 356 334 126 143 36 297 275 195 201 179 160 160 163 154 165 150 162 160 160 173 183 199 199 202 243 266 294 263 298 333 338 358
206 191 206 224 261 193 209 232 255 282 296 291 311 53 183 151 153 229 254 202 213 221 172 169 161 154 154 148 166 171 156 167 187 197 201 209 204 227 240 239 249 290 302 341
223 235 176 206 209 260 264 256 286 292 284 219 65 36 14 335 264 227 187 198 198 218 150 179 146 157 148 150 161 168 151 163 179 192 197 203 185 212 283 298 263 256 323 318
275 233 166 196 207 218 251 277 298 233 258 260 338 299 193 31 318 321 180 190 178 167 106 123 131 102 129 159 163 175 159 167 181 201 182 176 185 188 235 251 262 330 319 311
271 276 339 332 187 251 220 251 261 275 310 327 182 217 154 157 136 250 247 152 121 114 109 107 106 131 169 156 98 159 135 113 112 78 82 72 95 206 216 234 227 236 259 297
254 324 164 266 323 271 236 225 264 267 20 316 209 242 173 171 158 241 249 158 152 134 119 115 101 75 65 66 56 59 83 81 92 102 115 157 150 3 238 205 237 239 25 19
346 50 97 354 333 340 348 345 278 303 297 214 255 67 144 10 326 297 137 104 92 100 116 110 86 80 94 94 88 81 96 125 145 160 191 119 142 206 274 29 6 6 349 323
350 290 106 153 226 283 299 339 327 323 312 336 326 57 124 144 227 284 104 111 118 117 116 107 104 96 93 95 93 94 85 63 46 33 32 35 21 8 10 7 354 339 332 316
266 127 111 204 199 225 246 308 271 311 319 315 321 320 155 180 179 218 150 131 121 118 116 108 114 115 120 122 115 108 93 68 60 52 21 358 351 350 344 331 317 314 312 308
240 251 156 179 177 208 242 264 274 299 293 280 295 304 21 71 153 163 126 138 148 143 130 143 141 159 152 155 159 116 95 104 37 340 316 345 351 333 306 298 293 287 286 286
242 296 53 290 188 205 224 235 304 340 348 353 314 35 12 355 23 130 140 147 138 136 116 156 152 165 162 169 156 211 179 139 208 294 285 286 279 275 271 267 265 268 269 271
114 243 312 306 309 281 282 73 20 305 302 295 340 17 36 10 7 62 92 85 87 104 83 150 119 132 142 199 17 22 2 353 308 273 279 269 261 262 266 272 282 284 278 271
339 345 309 306 295 301 303 360 154 200 346 108 76 96 94 39 354 62 90 106 108 114 97 13 223 235 66 2 342 308 288 291 280 273 276 286 282 296 313 307 301 298 292 287
2 356 315 293 296 292 299 108 76 80 314 122 111 91 74 21 70 66 78 52 115 120 109 35 356 6 350 352 325 309 306 313 313 308 316 329 308 301 298 299 299 292 283 278
332 338 286 289 287 266 37 97 99 254 72 84 77 128 134 82 81 93 59 45 23 20 10 7 346 326 328 341 344 336 321 315 340 343 340 327 312 304 298 291 289 291 295 294
314 282 273 270 267 238 15 64 346 88 101 80 59 52 66 85 85 64 50 28 7 355 352 347 343 352 356 12 13 1 347 340 331 325 310 298 302 307 305 302 297 293 291 283
295 289 316 338 48 67 11 49 46 94 91 77 83 73 47 38 39 30 10 1 356 356 359 0 6 357 356 6 359 346 350 342 338 332 325 318 313 304 298 302 294 285 281 280
252 177 229 296 123 124 96 92 78 87 89 79 65 69 55 30 16 4 0 352 348 357 6 3 355 343 343 349 345 339 344 333 333 327 315 310 311 313 307 302 301 298 302 294
4 104 193 250 141 134 139 111 92 83 72 70 71 57 46 20 3 5 357 358 355 357 3 355 347 343 331 325 330 327 324 331 332 330 323 319 317 316 310 299 293 294 286 282
248 261 245 307 119 182 151 123 127 120 103 75 44 43 43 22 15 6 359 11 15 350 345 352 354 337 344 346 330 333 350 337 322 317 311 306 301 296 293 289 292 270 256 268